Ex-Dividend Dates

108 Firms going Ex-Dividend next week, including McDonald’s, Dow and Principal Financial Group

This image has an empty alt attribute; its file name is dividends_highrisesign.jpg

There are several well known large cap stocks going ex-dividend next week including the following six Top 100 Dividend Stocks: Dow, Raytheon Technologies, Diageo, Realty Income, McDonald’s and Principal Financial Group.

Ex-dividend dates are important to dividend investors because one must own a stock prior to its ex-dividend date in order to be eligible to receive its next dividend. Any stock ranked by our team as a Top 100 Dividend Stock is tagged.

Company Name Stock Symbol Yield Stock Price Ex-Div Date Pay Date Div Payout Market Cap
Reynolds Consumer Products Inc REYN 3.15% 29.42 2/22/2021 3/9/2021 0.92 6.156
Nordson Corp. NDSN 0.85% 188.64 2/22/2021 3/9/2021 1.56 10.97
Johnson & Johnson JNJ 2.44% 164.14 2/22/2021 3/9/2021 4.04 431.599
Snap-on, Inc. SNA 2.60% 193.4 2/22/2021 3/10/2021 4.92 10.55
AMKOR Technology Inc. AMKR 0.67% 23.63 2/22/2021 3/15/2021 0.16 5.768
Brunswick Corp. BC 1.19% 91.22 2/22/2021 3/15/2021 1.08 7.157
Manulife Financial Corp. MFC 4.46% 19.74 2/22/2021 3/19/2021 0.8812 38.454
Globe Telecom Inc. – ADR GTMEY 5.35% 41.45 2/22/2021 3/26/2021 2.247892 5.629
ING Groep N.V. – ADR ING 2.68% 10.93 2/23/2021 3/3/2021 0.29088 41.98
Loews Corp. L 0.52% 48.04 2/23/2021 3/9/2021 0.25 12.88
Sonoco Products Co. SON 3.03% 59.97 2/23/2021 3/10/2021 1.8 6.061
Scotts Miracle-Gro Company SMG 1.04% 234.9 2/23/2021 3/10/2021 2.48 13.032
S&P Global Inc SPGI 0.91% 340.85 2/23/2021 3/10/2021 3.08 81.698
Amcor Plc AMCR 4.16% 11.45 2/23/2021 3/16/2021 0.47 17.893
Equinix Inc EQIX 1.65% 686.78 2/23/2021 3/17/2021 11.48 60.916
Steris Plc STE 0.86% 181.27 2/23/2021 3/25/2021 1.6 15.352
AGL Energy Ltd – ADR AGLXY 5.90% 8.19 2/23/2021 4/2/2021 0.480134 5.041
Telstra Corporation – ADR TLSYY 3.03% 12.95 2/23/2021 4/2/2021 0.386646 30.975
First Bancorp PR – 7.125% FBPRP 6.94% 25.5 2/24/2021 3/1/2021 1.781256 5.46
CDW Corp CDW 1.01% 160.75 2/24/2021 3/10/2021 1.6 23.123
Tempur Sealy International Inc TPX 0.90% 33.06 2/24/2021 3/12/2021 0.28 6.751
Robert Half International Inc. RHI 1.99% 78.06 2/24/2021 3/15/2021 1.52 8.905
Moody`s Corp. MCO 0.88% 281.66 2/24/2021 3/18/2021 2.48 52.441
Applied Materials Inc. AMAT 0.76% 120.91 2/24/2021 3/18/2021 0.88 110.243
Dominion Energy Inc DCUE 7.36% 97.49 2/25/2021 3/1/2021 7.25 58.9
AGNC Investment Corp AGNC 8.83% 16.39 2/25/2021 3/9/2021 1.44 8.834
Analog Devices Inc. ADI 1.73% 162.42 2/25/2021 3/9/2021 2.76 60.141
Huntington Ingalls Industries Inc HII 2.56% 179.97 2/25/2021 3/12/2021 4.56 7.267
Cognex Corp. CGNX 0.28% 87.47 2/25/2021 3/12/2021 0.24 15.452
top100-01Dow Inc DOW 4.78% 59.31 2/25/2021 3/12/2021 2.8 44.52
Honeywell International Inc HON 1.84% 204.52 2/25/2021 3/12/2021 3.72 142.14
STAG Industrial Inc STAG 4.51% 32 2/25/2021 3/15/2021 1.449996 5.066
Ashland Global Holdings Inc ASH 1.27% 86.83 2/25/2021 3/15/2021 1.1 5.304
Cullen Frost Bankers Inc. CFR 2.83% 103.35 2/25/2021 3/15/2021 2.88 6.535
Hubbell Inc. HUBB 2.33% 170.09 2/25/2021 3/15/2021 3.92 9.239
Newell Brands Inc NWL 3.82% 23.98 2/25/2021 3/15/2021 0.92 10.231
Whirlpool Corp. WHR 2.58% 194.61 2/25/2021 3/15/2021 5 12.297
Dover Corp. DOV 1.64% 122.35 2/25/2021 3/15/2021 1.98 17.624
CSX Corp. CSX 1.24% 91.54 2/25/2021 3/15/2021 1.12 70.051
Estee Lauder Cos., Inc. EL 0.73% 286.8 2/25/2021 3/15/2021 2.12 103.756
NextEra Energy Inc NEE 1.91% 79.18 2/25/2021 3/15/2021 1.54 154.271
Fortune Brands Home & Security Inc FBHS 1.21% 87.22 2/25/2021 3/17/2021 1.04 12.163
Unilever plc – ADR UL 3.73% 54.66 2/25/2021 3/17/2021 2.0556 221.65
Voya Financial Inc VOYA 1.18% 57.81 2/25/2021 3/19/2021 0.66 7.171
top100-01Raytheon Technologies Corporation RTX 2.60% 73.67 2/25/2021 3/25/2021 1.9 112.396
Jacobs Engineering Group, Inc. J 0.74% 112.77 2/25/2021 3/26/2021 0.84 14.662
Fortive Corp FTV 0.41% 67.56 2/25/2021 3/26/2021 0.28 22.876
Corning, Inc. GLW 2.53% 38.07 2/25/2021 3/30/2021 0.96 29.332
Power Integrations Inc. POWI 0.56% 94.21 2/25/2021 3/31/2021 0.52 5.677
Brookfield Renewable Corporation BEPC 2.52% 48.69 2/25/2021 3/31/2021 1.215 8.443
Brookfield Infrastructure Partners BIP 3.80% 53.08 2/25/2021 3/31/2021 2.04 15.752
Brookfield Property Partners L.P. BPY 7.69% 17.8 2/25/2021 3/31/2021 1.33 16.663
Brookfield Asset Management Inc. BAM 1.18% 43.5 2/25/2021 3/31/2021 0.52 65.609
Union Pacific Corp. UNP 1.84% 210.18 2/25/2021 3/31/2021 3.88 140.955
Barclays plc – ADR BCS 1.30% 8.54 2/25/2021 4/1/2021 0.11092 37.064
Baxter International Inc. BAX 1.26% 79.04 2/25/2021 4/1/2021 0.98 39.911
Land Securities Group – ADR LDSCY 3.82% 8.45 2/25/2021 4/13/2021 0.327648 6.551
top100-01Diageo plc – ADR DEO 1.81% 168 2/25/2021 4/13/2021 3.06956 97.931
Great Wall Motor Co., Ltd. – ADR GWLLY 0.95% 33.65 2/25/2021 4/15/2021 0.353994 49.787
Total Access Communication Public Co. TACYY 13.57% 5.22 2/25/2021 5/5/2021 0.708602 5.207
PTT Global Chemical Public Co. PCHUY 3.12% 10.7 2/25/2021 5/10/2021 0.334246 9.828
Mowi ASA MNHVF 5.68% 23.75 2/26/2021 3/8/2021 1.28 12.421
Infineon Technologies AG – ADR IFNNY 0.62% 43.95 2/26/2021 3/9/2021 0.266442 56.587
HollyFrontier Corp HFC 4.15% 35.38 2/26/2021 3/10/2021 1.4 5.903
NCR Corp. – 5.50% NCRRP 0.00% 1395 2/26/2021 3/10/2021 169.353
Pan American Silver Corp PAAS 0.88% 32.44 2/26/2021 3/11/2021 0.28 6.803
DNB ASA – ADR DNHBY 5.01% 19.81 2/26/2021 3/11/2021 0.988607 30.826
Interactive Brokers Group Inc IBKR 0.54% 74.32 2/26/2021 3/12/2021 0.4 31.886
Sherwin-Williams Co. SHW 0.91% 720.95 2/26/2021 3/12/2021 6.6 65.176
Virtu Financial Inc VIRT 3.38% 28.3 2/26/2021 3/15/2021 0.96 5.486
Stifel Financial Corp. SF 1.04% 58.64 2/26/2021 3/15/2021 0.6 6.062
Clearway Energy Inc CWEN 4.09% 31.74 2/26/2021 3/15/2021 1.296 6.186
Clearway Energy Inc CWEN-A 4.31% 29.99 2/26/2021 3/15/2021 1.296 6.207
CoreLogic Inc CLGX 1.49% 90.21 2/26/2021 3/15/2021 1.32 6.53
People`s United Financial Inc PBCTP 5.04% 27.54 2/26/2021 3/15/2021 1.40625 6.754
Assurant Inc – 6.50% AIZP 5.46% 117.63 2/26/2021 3/15/2021 6.5 6.89
Advanced Drainage Systems Inc WMS 0.37% 100.93 2/26/2021 3/15/2021 0.36 7.176
Polaris Inc PII 2.13% 120.67 2/26/2021 3/15/2021 2.52 7.542
Interpublic Group Of Cos., Inc. IPG 4.29% 25.29 2/26/2021 3/15/2021 1.08 9.887
BorgWarner Inc BWA 1.53% 43.11 2/26/2021 3/15/2021 0.68 10.597
Mowi ASA – ADR – Sponsor MHGVY 0.67% 23.65 2/26/2021 3/15/2021 0.15026 12.127
Tradeweb Markets Inc TW 0.47% 69.38 2/26/2021 3/15/2021 0.32 15.772
Banco Do Brasil S.A. – ADR BDORY 0.00% 6.15 2/26/2021 3/15/2021 0.000352 18.008
Vulcan Materials Co VMC 0.91% 163.51 2/26/2021 3/15/2021 1.48 21.688
top100-01Realty Income Corp. O 4.56% 61.74 2/26/2021 3/15/2021 2.814 22.986
Tyson Foods, Inc. TSN 2.65% 67.78 2/26/2021 3/15/2021 1.78 24.692
Ball Corp. BLL 0.67% 90.45 2/26/2021 3/15/2021 0.6 29.546
Corteva Inc CTVA 1.16% 45.32 2/26/2021 3/15/2021 0.52 33.907
Barrick Gold Corp. GOLD 1.73% 19.97 2/26/2021 3/15/2021 0.36 34.963
DuPont de Nemours Inc DD 1.71% 69.24 2/26/2021 3/15/2021 1.2 37.526
top100-01McDonald`s Corp MCD 2.42% 214.63 2/26/2021 3/15/2021 5.16 159.599
Northrop Grumman Corp. NOC 1.95% 298.52 2/26/2021 3/17/2021 5.8 49.77
EBay Inc. EBAY 1.14% 62.23 2/26/2021 3/19/2021 0.72 42.358
Juniper Networks Inc JNPR 3.31% 24.06 2/26/2021 3/22/2021 0.8 7.907
Agnico Eagle Mines Ltd AEM 2.27% 59.97 2/26/2021 3/22/2021 1.4 14.445
Woodside Petroleum – ADR WOPEY 1.20% 19.01 2/26/2021 3/24/2021 0.24 18.26
Domino`s Pizza Enterprises Ltd – ADR DMZPY 0.94% 42.09 2/26/2021 3/26/2021 0.343478 7.441
top100-01Principal Financial Group Inc  PFG 4.13% 54.57 2/26/2021 3/26/2021 2.24 14.972
Lockheed Martin Corp. LMT 3.09% 337.4 2/26/2021 3/26/2021 10.4 94.604
Brookfield Property Partners L.P. BPYPP 6.65% 24.53 2/26/2021 3/31/2021 1.625 16.217
M & T Bank Corp MTB 2.97% 149.54 2/26/2021 3/31/2021 4.4 19.233
Martin Marietta Materials, Inc. MLM 0.70% 333.88 2/26/2021 3/31/2021 2.28 20.83
Tabcorp Holdings Ltd. – ADR TACBY 3.34% 7.1 2/26/2021 4/1/2021 0.23223 8.015
Santos Ltd – ADR SSLZY 1.86% 5.32 2/26/2021 4/1/2021 0.1 34.228
Nike, Inc. – Ordinary Shares – Class B NKE 0.76% 142.31 2/26/2021 4/1/2021 1.1 224.003
Hartford Financial Services Group Inc. HIG 2.79% 49.57 2/26/2021 4/2/2021 1.4 17.85
Wesfarmers Limited – ADR WFAFY 3.26% 21.22 2/26/2021 4/15/2021 0.683848 47.371
PTT Exploration and Production Public Co. PEXNY 4.89% 7.05 2/26/2021 5/6/2021 0.366886 15.004

Leave a Reply

Fill in your details below or click an icon to log in:

WordPress.com Logo

You are commenting using your WordPress.com account. Log Out /  Change )

Google photo

You are commenting using your Google account. Log Out /  Change )

Twitter picture

You are commenting using your Twitter account. Log Out /  Change )

Facebook photo

You are commenting using your Facebook account. Log Out /  Change )

Connecting to %s